Location: Newark
(50.9000°N, 14.8333°E)
Time: 18:51:40
(UTC+00:00)

N. Korean satellite - Pass Details

Date: 27 October 2020
Orbit: 453 x 503 km, 97.2° (Epoch: 04 December)

Event Time Altitude Azimuth Distance (km) Brightness Sun altitude
Rises 03:48:35 0° 25° (NNE) 2,488 10.6 -18.8°
Reaches altitude 10° 03:51:01 10° 43° (NE) 1,604 9.8 -18.4°
Maximum altitude 03:53:39 20° 93° (E) 1,102 9.3 -18.0°
Drops below altitude 10° 03:56:15 10° 143° (SE) 1,589 9.6 -17.6°
Sets 03:58:39 0° 161° (SSE) 2,457 10.4 -17.2°
